This demonstration page uses our WeatherBlox Daily Observations layout. Learn more.

Left ArrowRight Arrow

38.80484, -77.04692

Hourly Observations for November 23, 2015

Temp ( °F °C ) Dew Point ( °F °C ) Humidity (%) Winds ( mph kmh ) Pressure ( in mb ) Visibility ( mi km ) Precip ( " mm )
12:52 am 00:52 Clear 36 2.2 20 -6.7 52 52 NNW 12 19 30.07 1018 10 16 0.00 0.00
1:52 am 01:52 Clear 35 1.7 19 -7.2 52 52 NNW 14 22 30.08 1019 10 16 0.00 0.00
2:52 am 02:52 Clear 34 1.1 18 -7.8 52 52 NNW 12 19 30.10 1019 10 16 0.00 0.00
3:52 am 03:52 Clear 33 0.6 17 -8.3 52 52 NW 10 17 30.11 1020 10 16 0.00 0.00
4:52 am 04:52 Clear 33 0.6 17 -8.3 52 52 NW 15 24 30.11 1020 10 16 0.00 0.00
5:52 am 05:52 Clear 33 0.6 16 -8.9 49 49 NW 12 19 30.14 1021 10 16 0.00 0.00
6:52 am 06:52 Clear 32 0 16 -8.9 52 52 NW 15 24 30.17 1022 10 16 0.00 0.00
7:52 am 07:52 Sunny 33 0.6 17 -8.3 52 52 NW 13 20 30.20 1023 10 16 0.00 0.00
8:52 am 08:52 Sunny 35 1.7 18 -7.8 50 50 NW 16 26 30.21 1023 10 16 0.00 0.00
9:52 am 09:52 Mostly Sunny 37 2.8 18 -7.8 46 46 NW 15 24 30.22 1024 10 16 0.00 0.00
10:52 am 10:52 Mostly Sunny 39 3.9 16 -8.9 39 39 NW 16 26 30.22 1023 10 16 0.00 0.00
11:52 am 11:52 Partly Cloudy 41 5 15 -9.4 35 35 NNW 16 26 30.20 1023 10 16 0.00 0.00
12:52 pm 12:52 Mostly Sunny 42 5.6 16 -8.9 35 35 WNW 12 19 30.18 1022 10 16 0.00 0.00
1:52 pm 13:52 Mostly Sunny 42 5.6 15 -9.4 33 33 NW 16 26 30.18 1022 10 16 0.00 0.00
2:52 pm 14:52 Mostly Sunny 42 5.6 16 -8.9 35 35 NNW 14 22 30.18 1022 10 16 0.00 0.00
3:52 pm 15:52 Sunny 42 5.6 17 -8.3 36 36 NW 12 19 30.19 1022 10 16 0.00 0.00
4:52 pm 16:52 Clear 40 4.4 16 -8.9 38 38 WNW 8 13 30.21 1023 10 16 0.00 0.00
5:52 pm 17:52 Clear 39 3.9 16 -8.9 39 39 WNW 5 7 30.22 1024 10 16 0.00 0.00
6:52 pm 18:52 Clear 38 3.3 18 -7.8 44 44 SW 5 7 30.25 1024 10 16 0.00 0.00
7:52 pm 19:52 Clear 37 2.8 18 -7.8 46 46 SSW 6 9 30.26 1025 10 16 0.00 0.00
8:52 pm 20:52 Clear 37 2.8 20 -6.7 50 50 SW 5 7 30.27 1025 10 16 0.00 0.00
9:52 pm 21:52 Cloudy 36 2.2 21 -6.1 55 55 SSW 5 7 30.29 1026 10 16 0.00 0.00
10:52 pm 22:52 Cloudy 36 2.2 24 -4.4 62 62 SSW 6 9 30.30 1026 10 16 0.00 0.00
11:52 pm 23:52 Mostly Cloudy 37 2.8 26 -3.3 65 65 SSW 6 9 30.29 1026 10 16 0.00 0.00

Powered by AerisWeather